TimeEST,TemperatureF,Dew PointF,Humidity,Sea Level PressureIn,VisibilityMPH,Wind Direction,Wind SpeedMPH,Gust SpeedMPH,PrecipitationIn,Events,Conditions,WindDirDegrees,DateUTC
12:51 AM,13.1,3.0,64,28.28,10.0,NNW,4.6,-,N/A,,Clear,340,2013-01-28 05:51:00
1:51 AM,13.1,3.0,64,28.29,10.0,NW,4.6,-,N/A,,Mostly Cloudy,320,2013-01-28 06:51:00
2:51 AM,15.1,4.1,62,28.26,10.0,Calm,Calm,-,N/A,,Mostly Cloudy,0,2013-01-28 07:51:00
3:51 AM,16.2,5.0,62,28.25,10.0,Calm,Calm,-,N/A,,Overcast,0,2013-01-28 08:51:00
4:51 AM,18.1,4.1,54,28.24,10.0,Calm,Calm,-,N/A,,Overcast,0,2013-01-28 09:51:00
5:51 AM,17.1,6.1,62,28.25,10.0,Calm,Calm,-,N/A,,Mostly Cloudy,0,2013-01-28 10:51:00
6:51 AM,16.2,7.2,68,28.23,10.0,Calm,Calm,-,N/A,,Mostly Cloudy,0,2013-01-28 11:51:00
7:51 AM,17.1,6.1,62,28.24,10.0,Calm,Calm,-,N/A,,Clear,0,2013-01-28 12:51:00
8:51 AM,20.1,1.0,44,28.23,10.0,Calm,Calm,-,N/A,,Clear,0,2013-01-28 13:51:00
9:51 AM,22.1,2.1,42,28.23,10.0,East,4.6,-,N/A,,Clear,90,2013-01-28 14:51:00
10:51 AM,24.1,3.0,40,31.15,10.0,ESE,3.5,-,N/A,,Clear,120,2013-01-28 15:51:00
11:51 AM,25.2,4.1,41,31.10,10.0,Calm,Calm,-,N/A,,Clear,0,2013-01-28 16:51:00
12:51 PM,26.1,6.1,43,31.06,10.0,Calm,Calm,-,0.00,,Scattered Clouds,0,2013-01-28 17:51:00
1:51 PM,28.0,9.1,45,30.99,10.0,Variable,4.6,-,N/A,,Clear,0,2013-01-28 18:51:00
2:24 PM,26.6,12.2,55,30.20,2.0,Variable,3.5,-,0.00,,Partly Cloudy,0,2013-01-28 19:24:00
2:25 PM,26.6,12.2,55,30.20,2.0,Calm,Calm,-,0.00,Snow,Light Snow,0,2013-01-28 19:25:00
2:51 PM,26.1,17.1,69,30.97,1.8,SE,6.9,-,0.00,Snow,Light Snow,130,2013-01-28 19:51:00
3:22 PM,24.8,19.4,80,30.18,0.8,SE,5.8,-,0.00,Snow,Light Snow,130,2013-01-28 20:22:00
3:51 PM,24.1,21.0,88,30.96,1.0,ESE,3.5,-,0.00,Snow,Light Snow,110,2013-01-28 20:51:00
4:00 PM,24.8,21.2,86,30.18,1.0,ESE,4.6,-,0.00,Snow,Light Snow,110,2013-01-28 21:00:00
4:51 PM,24.1,21.0,88,30.93,0.5,East,4.6,-,0.00,Fog,Light Freezing Fog,90,2013-01-28 21:51:00
5:51 PM,24.1,21.0,88,30.90,0.8,East,3.5,-,0.00,,Mostly Cloudy,90,2013-01-28 22:51:00
5:55 PM,24.8,21.2,86,30.12,2.0,Calm,Calm,-,0.00,,Overcast,0,2013-01-28 22:55:00
6:01 PM,24.8,21.2,86,30.12,3.0,Calm,Calm,-,0.00,,Mostly Cloudy,0,2013-01-28 23:01:00
6:37 PM,24.8,21.2,86,30.12,9.0,North,3.5,-,0.00,,Mostly Cloudy,350,2013-01-28 23:37:00
6:51 PM,24.1,21.0,88,30.87,9.0,East,4.6,-,0.00,,Mostly Cloudy,80,2013-01-28 23:51:00
7:51 PM,24.1,21.0,88,30.87,5.0,Calm,Calm,-,0.00,,Mostly Cloudy,0,2013-01-29 00:51:00
8:14 PM,24.8,21.2,86,30.08,2.5,Calm,Calm,-,0.00,,Mostly Cloudy,0,2013-01-29 01:14:00
8:42 PM,23.0,21.2,93,30.07,1.5,Calm,Calm,-,0.00,,Mostly Cloudy,0,2013-01-29 01:42:00
8:51 PM,23.0,21.0,92,30.84,2.5,Calm,Calm,-,0.00,,Mostly Cloudy,0,2013-01-29 01:51:00
8:58 PM,24.8,21.2,86,30.06,5.0,Calm,Calm,-,0.00,,Overcast,0,2013-01-29 01:58:00
9:51 PM,23.0,21.0,92,30.83,7.0,North,4.6,-,0.00,,Overcast,350,2013-01-29 02:51:00
10:25 PM,23.0,21.2,93,30.04,2.5,North,3.5,-,0.00,,Overcast,350,2013-01-29 03:25:00
10:30 PM,23.0,21.2,93,30.04,3.0,North,3.5,-,0.00,,Overcast,360,2013-01-29 03:30:00
10:38 PM,23.0,21.2,93,30.04,4.0,Calm,Calm,-,0.00,,Overcast,0,2013-01-29 03:38:00
10:51 PM,23.0,21.0,92,30.82,5.0,NNW,4.6,-,0.00,,Overcast,340,2013-01-29 03:51:00
11:51 PM,23.0,21.0,92,30.81,3.0,NNW,3.5,-,0.00,,Mostly Cloudy,340,2013-01-29 04:51:00